User: anonymous
Location: Unspecified
(0.0000°N, 0.0000°E)
Time: 18:55:59
(UTC+02:00)
Language:

DELTA 2 R/B (1) - Orbit

View from above orbital plane
View from above orbital plane
View from above satellite
View from above satellite

Ground track
Ground track

The orbit data is extracted from the following two-line orbital elements,

1 27665U 03005C   14237.69869486  .00000010  00000-0  37941-4 0   964
2 27665 039.5752 296.3010 0008253 078.4493 071.2845 14.28209721604129
Epoch (UTC): 25 August 2014 16:46:07
Eccentricity: 0.0008253
inclination: 39.5752°
perigee height: 792 km
apogee height: 803 km
right ascension of ascending node: 296.3010°
argument of perigee: 78.4493°
revolutions per day: 14.28209721
mean anomaly at epoch: 71.2845°
orbit number at epoch: 60412

The dashed part of the orbit path shows where the satellite is in the earth's shadow,  

DLR